This is the latest recevied weather packets stored in our database for station/object VY2CRA-4. If no packets are shown the sender has not sent any weather packets the latest 10 day(s).
| Time | Temp. | Humidity | Pressure | Rain* | Wind** | Luminosity | Snow |
|---|---|---|---|---|---|---|---|
| 1787400952 | 35.56° C | 100% | 1018.6 hPa | 0 mm | - | - | - |
| 1787399753 | 33.33° C | 5% | 1018.6 hPa | 0 mm | - | - | - |
| 1787397351 | 23.33° C | 41% | 1018.4 hPa | 0 mm | - | - | - |
| 1787396148 | 20.56° C | 45% | 1018.2 hPa | 0 mm | - | - | - |
| 1787394947 | 19.44° C | 48% | 1018.2 hPa | 0 mm | - | - | - |
| 1787393748 | 18.33° C | 47% | 1018 hPa | 0 mm | - | - | - |
| 1787391345 | 18.33° C | 47% | 1017.6 hPa | 0 mm | - | - | - |
| 1787390144 | 18.33° C | 47% | 1017.3 hPa | 0 mm | - | - | - |
| 1787388943 | 18.89° C | 47% | 1017.1 hPa | 0 mm | - | - | - |
| 1787387742 | 18.89° C | 47% | 1016.8 hPa | 0 mm | - | - | - |
| 1787384138 | 19.44° C | 47% | 1017 hPa | 0 mm | - | - | - |
| 1787376932 | 20° C | 44% | 1016.6 hPa | 0 mm | - | - | - |
| 1787375732 | 20° C | 43% | 1016.6 hPa | 0 mm | - | - | - |
| 1787374532 | 20° C | 43% | 1016.6 hPa | 0 mm | - | - | - |
| 1787373331 | 20.56° C | 42% | 1016.5 hPa | 0 mm | - | - | - |
| 1787372129 | 20.56° C | 42% | 1016.5 hPa | 0 mm | - | - | - |
| 1787370929 | 20.56° C | 42% | 1016.6 hPa | 0 mm | - | - | - |
| 1787369728 | 20.56° C | 42% | 1016.5 hPa | 0 mm | - | - | - |
| 1787368527 | 21.11° C | 41% | 1016.5 hPa | 0 mm | - | - | - |
| 1787367326 | 21.11° C | 40% | 1016.3 hPa | 0 mm | - | - | - |
| 1787364924 | 21.11° C | 39% | 1016.3 hPa | 0 mm | - | - | - |
| 1787363723 | 21.67° C | 38% | 1016.3 hPa | 0 mm | - | - | - |
| 1787362522 | 21.67° C | 37% | 1016.2 hPa | 0 mm | - | - | - |
| 1787361321 | 22.22° C | 35% | 1016 hPa | 0 mm | - | - | - |
| 1787360120 | 22.78° C | 34% | 1016 hPa | 0 mm | - | - | - |
* Rain since midnight (hover to see other rain measurements)
** Current wind speed in m/s (hover to see current wind gust speed)